Year,Month,Day,Hour,Minute,Value (Times are PST for temperature in C)
2008,08,17,00,00,21.00
2008,08,17,00,01,20.90
2008,08,17,00,02,20.90
2008,08,17,00,03,20.90
2008,08,17,00,04,20.90
2008,08,17,00,05,20.90
2008,08,17,00,06,20.80
2008,08,17,00,07,20.80
2008,08,17,00,08,20.80
2008,08,17,00,09,20.80
2008,08,17,00,10,20.80
2008,08,17,00,11,20.80
2008,08,17,00,12,20.70
2008,08,17,00,13,20.70
2008,08,17,00,14,20.70
2008,08,17,00,15,20.80
2008,08,17,00,16,20.80
2008,08,17,00,17,20.80
2008,08,17,00,18,20.80
2008,08,17,00,19,20.80
2008,08,17,00,20,20.80
2008,08,17,00,21,20.70
2008,08,17,00,22,20.70
2008,08,17,00,23,20.70
2008,08,17,00,24,20.70
2008,08,17,00,25,20.70
2008,08,17,00,26,20.70
2008,08,17,00,27,20.70
2008,08,17,00,28,20.70
2008,08,17,00,29,20.70
2008,08,17,00,30,20.70
2008,08,17,00,31,20.70
2008,08,17,00,32,20.70
2008,08,17,00,33,20.70
2008,08,17,00,34,20.70
2008,08,17,00,35,20.70
2008,08,17,00,36,20.70
2008,08,17,00,37,20.70
2008,08,17,00,38,20.70
2008,08,17,00,39,20.70
2008,08,17,00,40,20.70
2008,08,17,00,41,20.70
2008,08,17,00,42,20.70
2008,08,17,00,43,20.70
2008,08,17,00,44,20.70
2008,08,17,00,45,20.70
2008,08,17,00,46,20.70
2008,08,17,00,47,20.70
2008,08,17,00,48,20.70
2008,08,17,00,49,20.70
2008,08,17,00,50,20.70
2008,08,17,00,51,20.70
2008,08,17,00,52,20.70
2008,08,17,00,53,20.70
2008,08,17,00,54,20.70
2008,08,17,00,55,20.70
2008,08,17,00,56,20.70
2008,08,17,00,57,20.70
2008,08,17,00,58,20.70
2008,08,17,00,59,20.70
2008,08,17,01,00,20.70
2008,08,17,01,01,20.70
2008,08,17,01,02,20.70
2008,08,17,01,03,20.70
2008,08,17,01,04,20.70
2008,08,17,01,05,20.70
2008,08,17,01,06,20.70
2008,08,17,01,07,20.70
2008,08,17,01,08,20.70
2008,08,17,01,09,20.70
2008,08,17,01,10,20.60
2008,08,17,01,11,20.60
2008,08,17,01,12,20.60
2008,08,17,01,13,20.60
2008,08,17,01,14,20.60
2008,08,17,01,15,20.60
2008,08,17,01,16,20.50
2008,08,17,01,17,20.50
2008,08,17,01,18,20.50
2008,08,17,01,19,20.40
2008,08,17,01,20,20.40
2008,08,17,01,21,20.40
2008,08,17,01,22,20.40
2008,08,17,01,23,20.40
2008,08,17,01,24,20.40
2008,08,17,01,25,20.30
2008,08,17,01,26,20.30
2008,08,17,01,27,20.30
2008,08,17,01,28,20.30
2008,08,17,01,29,20.20
2008,08,17,01,30,20.20
2008,08,17,01,31,20.20
2008,08,17,01,32,20.20
2008,08,17,01,33,20.20
2008,08,17,01,34,20.10
2008,08,17,01,35,20.10
2008,08,17,01,36,20.00
2008,08,17,01,37,20.00
2008,08,17,01,38,20.00
2008,08,17,01,39,20.00
2008,08,17,01,40,20.00
2008,08,17,01,41,20.00
2008,08,17,01,42,19.90
2008,08,17,01,43,19.90
2008,08,17,01,44,19.90
2008,08,17,01,45,19.90
2008,08,17,01,46,19.90
2008,08,17,01,47,19.90
2008,08,17,01,48,19.80
2008,08,17,01,49,19.80
2008,08,17,01,50,19.80
2008,08,17,01,51,19.80
2008,08,17,01,52,19.80
2008,08,17,01,53,19.80
2008,08,17,01,54,19.80
2008,08,17,01,55,19.80
2008,08,17,01,56,19.80
2008,08,17,01,57,19.80
2008,08,17,01,58,19.80
2008,08,17,01,59,19.80
2008,08,17,02,00,19.80
2008,08,17,02,01,19.80
2008,08,17,02,02,19.80
2008,08,17,02,03,19.80
2008,08,17,02,04,19.70
2008,08,17,02,05,19.70
2008,08,17,02,06,19.70
2008,08,17,02,07,19.70
2008,08,17,02,08,19.70
2008,08,17,02,09,19.60
2008,08,17,02,10,19.60
2008,08,17,02,11,19.60
2008,08,17,02,12,19.60
2008,08,17,02,13,19.50
2008,08,17,02,14,19.50
2008,08,17,02,15,19.40
2008,08,17,02,16,19.40
2008,08,17,02,17,19.40
2008,08,17,02,18,19.40
2008,08,17,02,19,19.40
2008,08,17,02,20,19.30
2008,08,17,02,21,19.30
2008,08,17,02,22,19.30
2008,08,17,02,23,19.30
2008,08,17,02,24,19.30
2008,08,17,02,25,19.30
2008,08,17,02,26,19.30
2008,08,17,02,27,19.20
2008,08,17,02,28,19.20
2008,08,17,02,29,19.20
2008,08,17,02,30,19.20
2008,08,17,02,31,19.10
2008,08,17,02,32,19.10
2008,08,17,02,33,19.10
2008,08,17,02,34,19.10
2008,08,17,02,35,19.10
2008,08,17,02,36,19.10
2008,08,17,02,37,19.10
2008,08,17,02,38,19.20
2008,08,17,02,39,19.20
2008,08,17,02,40,19.20
2008,08,17,02,41,19.20
2008,08,17,02,42,19.20
2008,08,17,02,43,19.20
2008,08,17,02,44,19.20
2008,08,17,02,45,19.20
2008,08,17,02,46,19.20
2008,08,17,02,47,19.20
2008,08,17,02,48,19.20
2008,08,17,02,49,19.20
2008,08,17,02,50,19.20
2008,08,17,02,51,19.20
2008,08,17,02,52,19.20
2008,08,17,02,53,19.20
2008,08,17,02,54,19.20
2008,08,17,02,55,19.20
2008,08,17,02,56,19.20
2008,08,17,02,57,19.20
2008,08,17,02,58,19.20
2008,08,17,02,59,19.10
2008,08,17,03,00,19.10
2008,08,17,03,01,19.10
2008,08,17,03,02,19.10
2008,08,17,03,03,19.10
2008,08,17,03,04,19.10
2008,08,17,03,05,19.10
2008,08,17,03,06,18.90
2008,08,17,03,07,18.90
2008,08,17,03,08,18.90
2008,08,17,03,09,18.90
2008,08,17,03,10,18.90
2008,08,17,03,11,18.90
2008,08,17,03,12,18.90
2008,08,17,03,13,18.90
2008,08,17,03,14,18.90
2008,08,17,03,15,18.90
2008,08,17,03,16,18.90
2008,08,17,03,17,18.90
2008,08,17,03,18,18.90
2008,08,17,03,19,18.90
2008,08,17,03,20,18.90
2008,08,17,03,21,18.90
2008,08,17,03,22,18.90
2008,08,17,03,23,18.90
2008,08,17,03,24,18.90
2008,08,17,03,25,18.90
2008,08,17,03,26,19.00
2008,08,17,03,27,19.00
2008,08,17,03,28,19.00
2008,08,17,03,29,19.00
2008,08,17,03,30,19.10
2008,08,17,03,31,19.10
2008,08,17,03,32,19.10
2008,08,17,03,33,19.10
2008,08,17,03,34,19.10
2008,08,17,03,35,19.10
2008,08,17,03,36,19.10
2008,08,17,03,37,19.10
2008,08,17,03,38,19.10
2008,08,17,03,39,19.10
2008,08,17,03,40,19.10
2008,08,17,03,41,19.00
2008,08,17,03,42,19.00
2008,08,17,03,43,19.00
2008,08,17,03,44,19.00
2008,08,17,03,45,18.90
2008,08,17,03,46,18.90
2008,08,17,03,47,18.90
2008,08,17,03,48,18.90
2008,08,17,03,49,18.90
2008,08,17,03,50,18.90
2008,08,17,03,51,18.90
2008,08,17,03,52,18.90
2008,08,17,03,53,18.90
2008,08,17,03,54,18.90
2008,08,17,03,55,18.90
2008,08,17,03,56,18.90
2008,08,17,03,57,18.90
2008,08,17,03,58,18.90
2008,08,17,03,59,18.90
2008,08,17,04,00,18.90
2008,08,17,04,01,18.90
2008,08,17,04,02,18.90
2008,08,17,04,03,18.90
2008,08,17,04,04,18.80
2008,08,17,04,05,18.80
2008,08,17,04,06,18.80
2008,08,17,04,07,18.80
2008,08,17,04,08,18.80
2008,08,17,04,09,18.80
2008,08,17,04,10,18.80
2008,08,17,04,11,18.80
2008,08,17,04,12,18.80
2008,08,17,04,13,18.80
2008,08,17,04,14,18.80
2008,08,17,04,15,18.80
2008,08,17,04,16,18.80
2008,08,17,04,17,18.80
2008,08,17,04,18,18.80
2008,08,17,04,19,18.80
2008,08,17,04,20,18.80
2008,08,17,04,21,18.80
2008,08,17,04,22,18.80
2008,08,17,04,23,18.80
2008,08,17,04,24,18.80
2008,08,17,04,25,18.80
2008,08,17,04,26,18.80
2008,08,17,04,27,18.80
2008,08,17,04,28,18.80
2008,08,17,04,29,18.80
2008,08,17,04,30,18.80
2008,08,17,04,31,18.70
2008,08,17,04,32,18.70
2008,08,17,04,33,18.70
2008,08,17,04,34,18.70
2008,08,17,04,35,18.70
2008,08,17,04,36,18.60
2008,08,17,04,37,18.60
2008,08,17,04,38,18.60
2008,08,17,04,39,18.60
2008,08,17,04,40,18.60
2008,08,17,04,41,18.50
2008,08,17,04,42,18.50
2008,08,17,04,43,18.50
2008,08,17,04,44,18.50
2008,08,17,04,45,18.50
2008,08,17,04,46,18.40
2008,08,17,04,47,18.40
2008,08,17,04,48,18.40
2008,08,17,04,49,18.40
2008,08,17,04,50,18.40
2008,08,17,04,51,18.40
2008,08,17,04,52,18.40
2008,08,17,04,53,18.40
2008,08,17,04,54,18.40
2008,08,17,04,55,18.40
2008,08,17,04,56,18.40
2008,08,17,04,57,18.40
2008,08,17,04,58,18.40
2008,08,17,04,59,18.40
2008,08,17,05,00,18.40
2008,08,17,05,01,18.40
2008,08,17,05,02,18.40
2008,08,17,05,03,18.40
2008,08,17,05,04,18.40
2008,08,17,05,05,18.40
2008,08,17,05,06,18.40
2008,08,17,05,07,18.40
2008,08,17,05,08,18.40
2008,08,17,05,09,18.40
2008,08,17,05,10,18.40
2008,08,17,05,11,18.40
2008,08,17,05,12,18.40
2008,08,17,05,13,18.40
2008,08,17,05,14,18.40
2008,08,17,05,15,18.40
2008,08,17,05,16,18.40
2008,08,17,05,17,18.40
2008,08,17,05,18,18.40
2008,08,17,05,19,18.40
2008,08,17,05,20,18.40
2008,08,17,05,21,18.40
2008,08,17,05,22,18.40
2008,08,17,05,23,18.40
2008,08,17,05,24,18.40
2008,08,17,05,25,18.40
2008,08,17,05,26,18.40
2008,08,17,05,27,18.40
2008,08,17,05,28,18.40
2008,08,17,05,29,18.40
2008,08,17,05,30,18.40
2008,08,17,05,31,18.40
2008,08,17,05,32,18.40
2008,08,17,05,33,18.40
2008,08,17,05,34,18.40
2008,08,17,05,35,18.40
2008,08,17,05,36,18.40
2008,08,17,05,37,18.40
2008,08,17,05,38,18.40
2008,08,17,05,39,18.40
2008,08,17,05,40,18.40
2008,08,17,05,41,18.40
2008,08,17,05,42,18.40
2008,08,17,05,43,18.40
2008,08,17,05,44,18.40
2008,08,17,05,45,18.40
2008,08,17,05,46,18.40
2008,08,17,05,47,18.40
2008,08,17,05,48,18.40
2008,08,17,05,49,18.40
2008,08,17,05,50,18.40
2008,08,17,05,51,18.30
2008,08,17,05,52,18.30
2008,08,17,05,53,18.30
2008,08,17,05,54,18.30
2008,08,17,05,55,18.30
2008,08,17,05,56,18.30
2008,08,17,05,57,18.30
2008,08,17,05,58,18.30
2008,08,17,05,59,18.30
2008,08,17,06,00,18.30
2008,08,17,06,01,18.30
2008,08,17,06,02,18.30
2008,08,17,06,03,18.30
2008,08,17,06,04,18.30
2008,08,17,06,05,18.30
2008,08,17,06,06,18.30
2008,08,17,06,07,18.30
2008,08,17,06,08,18.30
2008,08,17,06,09,18.30
2008,08,17,06,10,18.30
2008,08,17,06,11,18.30
2008,08,17,06,12,18.30
2008,08,17,06,13,18.30
2008,08,17,06,14,18.30
2008,08,17,06,15,18.30
2008,08,17,06,16,18.30
2008,08,17,06,17,18.30
2008,08,17,06,18,18.30
2008,08,17,06,19,18.30
2008,08,17,06,20,18.30
2008,08,17,06,21,18.30
2008,08,17,06,22,18.30
2008,08,17,06,23,18.30
2008,08,17,06,24,18.30
2008,08,17,06,25,18.30
2008,08,17,06,26,18.30
2008,08,17,06,27,18.30
2008,08,17,06,28,18.30
2008,08,17,06,29,18.30
2008,08,17,06,30,18.30
2008,08,17,06,31,18.30
2008,08,17,06,32,18.30
2008,08,17,06,33,18.30
2008,08,17,06,34,18.30
2008,08,17,06,35,18.30
2008,08,17,06,36,18.30
2008,08,17,06,37,18.30
2008,08,17,06,38,18.40
2008,08,17,06,39,18.40
2008,08,17,06,40,18.40
2008,08,17,06,41,18.40
2008,08,17,06,42,18.40
2008,08,17,06,43,18.40
2008,08,17,06,44,18.40
2008,08,17,06,45,18.40
2008,08,17,06,46,18.40
2008,08,17,06,47,18.40
2008,08,17,06,48,18.40
2008,08,17,06,49,18.40
2008,08,17,06,50,18.40
2008,08,17,06,51,18.40
2008,08,17,06,52,18.40
2008,08,17,06,53,18.40
2008,08,17,06,54,18.40
2008,08,17,06,55,18.40
2008,08,17,06,56,18.40
2008,08,17,06,57,18.40
2008,08,17,06,58,18.40
2008,08,17,06,59,18.40
2008,08,17,07,00,18.40
2008,08,17,07,01,18.30
2008,08,17,07,02,18.40
2008,08,17,07,03,18.30
2008,08,17,07,04,18.40
2008,08,17,07,05,18.40
2008,08,17,07,06,18.40
2008,08,17,07,07,18.40
2008,08,17,07,08,18.40
2008,08,17,07,09,18.40
2008,08,17,07,10,18.50
2008,08,17,07,11,18.50
2008,08,17,07,12,18.60
2008,08,17,07,13,18.60
2008,08,17,07,14,18.60
2008,08,17,07,15,18.60
2008,08,17,07,16,18.60
2008,08,17,07,17,18.70
2008,08,17,07,18,18.70
2008,08,17,07,19,18.70
2008,08,17,07,20,18.70
2008,08,17,07,21,18.70
2008,08,17,07,22,18.70
2008,08,17,07,23,18.70
2008,08,17,07,24,18.70
2008,08,17,07,25,18.80
2008,08,17,07,26,18.80
2008,08,17,07,27,18.80
2008,08,17,07,28,18.80
2008,08,17,07,29,18.80
2008,08,17,07,30,18.80
2008,08,17,07,31,18.80
2008,08,17,07,32,18.80
2008,08,17,07,33,18.80
2008,08,17,07,34,18.80
2008,08,17,07,35,18.80
2008,08,17,07,36,18.80
2008,08,17,07,37,18.80
2008,08,17,07,38,18.80
2008,08,17,07,39,18.80
2008,08,17,07,40,18.90
2008,08,17,07,41,18.90
2008,08,17,07,42,18.90
2008,08,17,07,43,18.90
2008,08,17,07,44,18.90
2008,08,17,07,45,19.00
2008,08,17,07,46,19.00
2008,08,17,07,47,19.00
2008,08,17,07,48,19.10
2008,08,17,07,49,19.10
2008,08,17,07,50,19.10
2008,08,17,07,51,19.10
2008,08,17,07,52,19.10
2008,08,17,07,53,19.10
2008,08,17,07,54,19.10
2008,08,17,07,55,19.20
2008,08,17,07,56,19.20
2008,08,17,07,57,19.20
2008,08,17,07,58,19.20
2008,08,17,07,59,19.30
2008,08,17,08,00,19.30
2008,08,17,08,01,19.30
2008,08,17,08,02,19.30
2008,08,17,08,03,19.30
2008,08,17,08,04,19.40
2008,08,17,08,05,19.40
2008,08,17,08,06,19.40
2008,08,17,08,07,19.40
2008,08,17,08,08,19.40
2008,08,17,08,09,19.40
2008,08,17,08,10,19.40
2008,08,17,08,11,19.40
2008,08,17,08,12,19.40
2008,08,17,08,13,19.50
2008,08,17,08,14,19.70
2008,08,17,08,15,19.70
2008,08,17,08,16,19.70
2008,08,17,08,17,19.80
2008,08,17,08,18,19.80
2008,08,17,08,19,19.80
2008,08,17,08,20,19.90
2008,08,17,08,21,19.90
2008,08,17,08,22,19.90
2008,08,17,08,23,19.90
2008,08,17,08,24,20.00
2008,08,17,08,25,20.00
2008,08,17,08,26,20.10
2008,08,17,08,27,20.10
2008,08,17,08,28,20.20
2008,08,17,08,29,20.20
2008,08,17,08,30,20.30
2008,08,17,08,31,20.30
2008,08,17,08,32,20.30
2008,08,17,08,33,20.40
2008,08,17,08,34,20.40
2008,08,17,08,35,20.40
2008,08,17,08,36,20.40
2008,08,17,08,37,20.40
2008,08,17,08,38,20.40
2008,08,17,08,39,20.40
2008,08,17,08,40,20.40
2008,08,17,08,41,20.40
2008,08,17,08,42,20.40
2008,08,17,08,43,20.40
2008,08,17,08,44,20.40
2008,08,17,08,45,20.40
2008,08,17,08,46,20.50
2008,08,17,08,47,20.60
2008,08,17,08,48,20.70
2008,08,17,08,49,20.80
2008,08,17,08,50,20.90
2008,08,17,08,51,21.00
2008,08,17,08,52,21.10
2008,08,17,08,53,21.20
2008,08,17,08,54,21.30
2008,08,17,08,55,21.40
2008,08,17,08,56,21.50
2008,08,17,08,57,21.60
2008,08,17,08,58,21.70
2008,08,17,08,59,21.70
2008,08,17,09,00,21.80
2008,08,17,09,01,21.90
2008,08,17,09,02,22.00
2008,08,17,09,03,22.10
2008,08,17,09,04,22.10
2008,08,17,09,05,22.20
2008,08,17,09,06,22.30
2008,08,17,09,07,22.30
2008,08,17,09,08,22.30
2008,08,17,09,09,22.30
2008,08,17,09,10,22.30
2008,08,17,09,11,22.20
2008,08,17,09,12,22.20
2008,08,17,09,13,22.20
2008,08,17,09,14,22.20
2008,08,17,09,15,22.10
2008,08,17,09,16,22.10
2008,08,17,09,17,22.10
2008,08,17,09,18,22.10
2008,08,17,09,19,22.10
2008,08,17,09,20,22.10
2008,08,17,09,21,22.20
2008,08,17,09,22,22.20
2008,08,17,09,23,22.20
2008,08,17,09,24,22.30
2008,08,17,09,25,22.30
2008,08,17,09,26,22.30
2008,08,17,09,27,22.30
2008,08,17,09,28,22.30
2008,08,17,09,29,22.30
2008,08,17,09,30,22.30
2008,08,17,09,31,22.30
2008,08,17,09,32,22.40
2008,08,17,09,33,22.40
2008,08,17,09,34,22.50
2008,08,17,09,35,22.50
2008,08,17,09,36,22.60
2008,08,17,09,37,22.70
2008,08,17,09,38,22.70
2008,08,17,09,39,22.80
2008,08,17,09,40,22.80
2008,08,17,09,41,22.90
2008,08,17,09,42,23.00
2008,08,17,09,43,23.00
2008,08,17,09,44,23.10
2008,08,17,09,45,23.20
2008,08,17,09,46,23.20
2008,08,17,09,47,23.20
2008,08,17,09,48,23.30
2008,08,17,09,49,23.30
2008,08,17,09,50,23.40
2008,08,17,09,51,23.50
2008,08,17,09,52,23.50
2008,08,17,09,53,23.60
2008,08,17,09,54,23.70
2008,08,17,09,55,23.70
2008,08,17,09,56,23.80
2008,08,17,09,57,23.90
2008,08,17,09,58,23.90
2008,08,17,09,59,24.00
2008,08,17,10,00,24.10
2008,08,17,10,01,24.20
2008,08,17,10,02,24.30
2008,08,17,10,03,24.30
2008,08,17,10,04,24.30
2008,08,17,10,05,24.30
2008,08,17,10,06,24.40
2008,08,17,10,07,24.40
2008,08,17,10,08,24.40
2008,08,17,10,09,24.40
2008,08,17,10,10,24.50
2008,08,17,10,11,24.50
2008,08,17,10,12,24.60
2008,08,17,10,13,24.60
2008,08,17,10,14,24.70
2008,08,17,10,15,24.70
2008,08,17,10,16,24.70
2008,08,17,10,17,24.80
2008,08,17,10,18,24.80
2008,08,17,10,19,24.80
2008,08,17,10,20,24.90
2008,08,17,10,21,24.90
2008,08,17,10,22,24.90
2008,08,17,10,23,24.90
2008,08,17,10,24,24.90
2008,08,17,10,25,25.00
2008,08,17,10,26,25.00
2008,08,17,10,27,25.10
2008,08,17,10,28,25.20
2008,08,17,10,29,25.30
2008,08,17,10,30,25.40
2008,08,17,10,31,25.40
2008,08,17,10,32,25.40
2008,08,17,10,33,25.40
2008,08,17,10,34,25.50
2008,08,17,10,35,25.50
2008,08,17,10,36,25.60
2008,08,17,10,37,25.70
2008,08,17,10,38,25.70
2008,08,17,10,39,25.80
2008,08,17,10,40,25.80
2008,08,17,10,41,25.90
2008,08,17,10,42,25.90
2008,08,17,10,43,25.90
2008,08,17,10,44,26.00
2008,08,17,10,45,26.00
2008,08,17,10,46,26.10
2008,08,17,10,47,26.10
2008,08,17,10,48,26.00
2008,08,17,10,49,26.00
2008,08,17,10,50,25.90
2008,08,17,10,51,25.90
2008,08,17,10,52,25.90
2008,08,17,10,53,25.90
2008,08,17,10,54,25.90
2008,08,17,10,55,26.00
2008,08,17,10,56,26.10
2008,08,17,10,57,26.20
2008,08,17,10,58,26.30
2008,08,17,10,59,26.30
2008,08,17,11,00,26.40
2008,08,17,11,01,26.40
2008,08,17,11,02,26.40
2008,08,17,11,03,26.40
2008,08,17,11,04,26.40
2008,08,17,11,05,26.50
2008,08,17,11,06,26.70
2008,08,17,11,07,26.70
2008,08,17,11,08,26.80
2008,08,17,11,09,26.90
2008,08,17,11,10,26.90
2008,08,17,11,11,27.00
2008,08,17,11,12,27.10
2008,08,17,11,13,27.20
2008,08,17,11,14,27.20
2008,08,17,11,15,27.20
2008,08,17,11,16,27.20
2008,08,17,11,17,27.20
2008,08,17,11,18,27.10
2008,08,17,11,19,27.10
2008,08,17,11,20,27.00
2008,08,17,11,21,27.00
2008,08,17,11,22,27.00
2008,08,17,11,23,27.00
2008,08,17,11,24,27.10
2008,08,17,11,25,27.10
2008,08,17,11,26,27.20
2008,08,17,11,27,27.20
2008,08,17,11,28,27.30
2008,08,17,11,29,27.30
2008,08,17,11,30,27.30
2008,08,17,11,31,27.20
2008,08,17,11,32,27.20
2008,08,17,11,33,27.20
2008,08,17,11,34,27.20
2008,08,17,11,35,27.20
2008,08,17,11,36,27.20
2008,08,17,11,37,27.20
2008,08,17,11,38,27.20
2008,08,17,11,39,27.20
2008,08,17,11,40,27.20
2008,08,17,11,41,27.30
2008,08,17,11,42,27.30
2008,08,17,11,43,27.40
2008,08,17,11,44,27.40
2008,08,17,11,45,27.50
2008,08,17,11,46,27.60
2008,08,17,11,47,27.60
2008,08,17,11,48,27.60
2008,08,17,11,49,27.70
2008,08,17,11,50,27.70
2008,08,17,11,51,27.70
2008,08,17,11,52,27.80
2008,08,17,11,53,27.80
2008,08,17,11,54,27.90
2008,08,17,11,55,28.00
2008,08,17,11,56,28.10
2008,08,17,11,57,28.30
2008,08,17,11,58,28.40
2008,08,17,11,59,28.60
2008,08,17,12,00,28.70
2008,08,17,12,01,28.90
2008,08,17,12,02,29.00
2008,08,17,12,03,29.10
2008,08,17,12,04,29.20
2008,08,17,12,05,29.30
2008,08,17,12,06,29.40
2008,08,17,12,07,29.60
2008,08,17,12,08,29.70
2008,08,17,12,09,29.80
2008,08,17,12,10,29.80
2008,08,17,12,11,29.90
2008,08,17,12,12,30.00
2008,08,17,12,13,30.00
2008,08,17,12,14,30.10
2008,08,17,12,15,30.20
2008,08,17,12,16,30.20
2008,08,17,12,17,30.20
2008,08,17,12,18,30.20
2008,08,17,12,19,30.20
2008,08,17,12,20,30.20
2008,08,17,12,21,30.30
2008,08,17,12,22,30.30
2008,08,17,12,23,30.30
2008,08,17,12,24,30.30
2008,08,17,12,25,30.30
2008,08,17,12,26,30.40
2008,08,17,12,27,30.60
2008,08,17,12,28,30.70
2008,08,17,12,29,30.80
2008,08,17,12,30,30.80
2008,08,17,12,31,30.80
2008,08,17,12,32,30.90
2008,08,17,12,33,30.90
2008,08,17,12,34,30.90
2008,08,17,12,35,30.90
2008,08,17,12,36,30.90
2008,08,17,12,37,30.80
2008,08,17,12,38,30.70
2008,08,17,12,39,30.60
2008,08,17,12,40,30.60
2008,08,17,12,41,30.50
2008,08,17,12,42,30.40
2008,08,17,12,43,30.40
2008,08,17,12,44,30.40
2008,08,17,12,45,30.40
2008,08,17,12,46,30.40
2008,08,17,12,47,30.50
2008,08,17,12,48,30.50
2008,08,17,12,49,30.50
2008,08,17,12,50,30.50
2008,08,17,12,51,30.60
2008,08,17,12,52,30.60
2008,08,17,12,53,30.60
2008,08,17,12,54,30.60
2008,08,17,12,55,30.50
2008,08,17,12,56,30.50
2008,08,17,12,57,30.40
2008,08,17,12,58,30.30
2008,08,17,12,59,30.20
2008,08,17,13,00,30.20
2008,08,17,13,01,30.00
2008,08,17,13,02,29.90
2008,08,17,13,03,29.90
2008,08,17,13,04,29.80
2008,08,17,13,05,29.70
2008,08,17,13,06,29.70
2008,08,17,13,07,29.70
2008,08,17,13,08,29.70
2008,08,17,13,09,29.70
2008,08,17,13,10,29.80
2008,08,17,13,11,29.80
2008,08,17,13,12,29.80
2008,08,17,13,13,29.90
2008,08,17,13,14,30.00
2008,08,17,13,15,30.10
2008,08,17,13,16,30.10
2008,08,17,13,17,30.10
2008,08,17,13,18,30.10
2008,08,17,13,19,30.20
2008,08,17,13,20,30.20
2008,08,17,13,21,30.20
2008,08,17,13,22,30.20
2008,08,17,13,23,30.20
2008,08,17,13,24,30.20
2008,08,17,13,25,30.20
2008,08,17,13,26,30.20
2008,08,17,13,27,30.20
2008,08,17,13,28,30.20
2008,08,17,13,29,30.20
2008,08,17,13,30,30.20
2008,08,17,13,31,30.20
2008,08,17,13,32,30.10
2008,08,17,13,33,30.00
2008,08,17,13,34,29.80
2008,08,17,13,35,29.70
2008,08,17,13,36,29.70
2008,08,17,13,37,29.70
2008,08,17,13,38,29.70
2008,08,17,13,39,29.70
2008,08,17,13,40,29.70
2008,08,17,13,41,29.80
2008,08,17,13,42,29.80
2008,08,17,13,43,29.80
2008,08,17,13,44,29.90
2008,08,17,13,45,29.90
2008,08,17,13,46,29.90
2008,08,17,13,47,29.90
2008,08,17,13,48,30.00
2008,08,17,13,49,30.10
2008,08,17,13,50,30.10
2008,08,17,13,51,30.20
2008,08,17,13,52,30.40
2008,08,17,13,53,30.50
2008,08,17,13,54,30.50
2008,08,17,13,55,30.60
2008,08,17,13,56,30.60
2008,08,17,13,57,30.60
2008,08,17,13,58,30.60
2008,08,17,13,59,30.60
2008,08,17,14,00,30.60
2008,08,17,14,01,30.70
2008,08,17,14,02,30.70
2008,08,17,14,03,30.70
2008,08,17,14,04,30.70
2008,08,17,14,05,30.60
2008,08,17,14,06,30.60
2008,08,17,14,07,30.60
2008,08,17,14,08,30.60
2008,08,17,14,09,30.50
2008,08,17,14,10,30.40
2008,08,17,14,11,30.20
2008,08,17,14,12,30.20
2008,08,17,14,13,30.10
2008,08,17,14,14,30.10
2008,08,17,14,15,30.00
2008,08,17,14,16,30.00
2008,08,17,14,17,29.90
2008,08,17,14,18,29.90
2008,08,17,14,19,29.80
2008,08,17,14,20,29.80
2008,08,17,14,21,29.90
2008,08,17,14,22,29.90
2008,08,17,14,23,29.90
2008,08,17,14,24,30.00
2008,08,17,14,25,30.00
2008,08,17,14,26,30.10
2008,08,17,14,27,30.20
2008,08,17,14,28,30.30
2008,08,17,14,29,30.40
2008,08,17,14,30,30.40
2008,08,17,14,31,30.50
2008,08,17,14,32,30.60
2008,08,17,14,33,30.60
2008,08,17,14,34,30.60
2008,08,17,14,35,30.60
2008,08,17,14,36,30.70
2008,08,17,14,37,30.70
2008,08,17,14,38,30.70
2008,08,17,14,39,30.80
2008,08,17,14,40,30.80
2008,08,17,14,41,30.90
2008,08,17,14,42,31.00
2008,08,17,14,43,31.10
2008,08,17,14,44,31.10
2008,08,17,14,45,31.10
2008,08,17,14,46,31.10
2008,08,17,14,47,31.00
2008,08,17,14,48,31.00
2008,08,17,14,49,30.90
2008,08,17,14,50,30.80
2008,08,17,14,51,30.60
2008,08,17,14,52,30.40
2008,08,17,14,53,30.30
2008,08,17,14,54,30.20
2008,08,17,14,55,30.10
2008,08,17,14,56,30.10
2008,08,17,14,57,30.00
2008,08,17,14,58,30.00
2008,08,17,14,59,30.00
2008,08,17,15,00,30.00
2008,08,17,15,01,30.00
2008,08,17,15,02,30.10
2008,08,17,15,03,30.20
2008,08,17,15,04,30.30
2008,08,17,15,05,30.50
2008,08,17,15,06,30.60
2008,08,17,15,07,30.70
2008,08,17,15,08,30.90
2008,08,17,15,09,30.90
2008,08,17,15,10,31.00
2008,08,17,15,11,31.10
2008,08,17,15,12,31.10
2008,08,17,15,13,31.10
2008,08,17,15,14,31.10
2008,08,17,15,15,31.10
2008,08,17,15,16,31.10
2008,08,17,15,17,31.00
2008,08,17,15,18,31.00
2008,08,17,15,19,30.90
2008,08,17,15,20,30.90
2008,08,17,15,21,30.90
2008,08,17,15,22,30.90
2008,08,17,15,23,30.80
2008,08,17,15,24,30.80
2008,08,17,15,25,30.70
2008,08,17,15,26,30.70
2008,08,17,15,27,30.60
2008,08,17,15,28,30.60
2008,08,17,15,29,30.60
2008,08,17,15,30,30.50
2008,08,17,15,31,30.50
2008,08,17,15,32,30.50
2008,08,17,15,33,30.60
2008,08,17,15,34,30.60
2008,08,17,15,35,30.50
2008,08,17,15,36,30.40
2008,08,17,15,37,30.30
2008,08,17,15,38,30.20
2008,08,17,15,39,30.10
2008,08,17,15,40,30.10
2008,08,17,15,41,30.00
2008,08,17,15,42,29.90
2008,08,17,15,43,29.90
2008,08,17,15,44,29.80
2008,08,17,15,45,29.80
2008,08,17,15,46,29.70
2008,08,17,15,47,29.70
2008,08,17,15,48,29.70
2008,08,17,15,49,29.60
2008,08,17,15,50,29.40
2008,08,17,15,51,29.30
2008,08,17,15,52,29.10
2008,08,17,15,53,28.90
2008,08,17,15,54,28.70
2008,08,17,15,55,28.40
2008,08,17,15,56,28.20
2008,08,17,15,57,28.10
2008,08,17,15,58,27.90
2008,08,17,15,59,27.80
2008,08,17,16,00,27.80
2008,08,17,16,01,27.70
2008,08,17,16,02,27.60
2008,08,17,16,03,27.60
2008,08,17,16,04,27.50
2008,08,17,16,05,27.30
2008,08,17,16,06,27.20
2008,08,17,16,07,27.10
2008,08,17,16,08,27.00
2008,08,17,16,09,27.00
2008,08,17,16,10,26.90
2008,08,17,16,11,26.80
2008,08,17,16,12,26.80
2008,08,17,16,13,26.70
2008,08,17,16,14,26.70
2008,08,17,16,15,26.60
2008,08,17,16,16,26.60
2008,08,17,16,17,26.60
2008,08,17,16,18,26.50
2008,08,17,16,19,26.50
2008,08,17,16,20,26.50
2008,08,17,16,21,26.50
2008,08,17,16,22,26.40
2008,08,17,16,23,26.40
2008,08,17,16,24,26.40
2008,08,17,16,25,26.40
2008,08,17,16,26,26.30
2008,08,17,16,27,26.30
2008,08,17,16,28,26.30
2008,08,17,16,29,26.20
2008,08,17,16,30,26.20
2008,08,17,16,31,26.10
2008,08,17,16,32,26.10
2008,08,17,16,33,26.00
2008,08,17,16,34,25.90
2008,08,17,16,35,25.90
2008,08,17,16,36,25.90
2008,08,17,16,37,25.90
2008,08,17,16,38,25.90
2008,08,17,16,39,25.80
2008,08,17,16,40,25.80
2008,08,17,16,41,25.80
2008,08,17,16,42,25.80
2008,08,17,16,43,25.80
2008,08,17,16,44,25.90
2008,08,17,16,45,25.90
2008,08,17,16,46,25.90
2008,08,17,16,47,25.90
2008,08,17,16,48,26.00
2008,08,17,16,49,26.10
2008,08,17,16,50,26.20
2008,08,17,16,51,26.20
2008,08,17,16,52,26.30
2008,08,17,16,53,26.40
2008,08,17,16,54,26.40
2008,08,17,16,55,26.50
2008,08,17,16,56,26.60
2008,08,17,16,57,26.60
2008,08,17,16,58,26.60
2008,08,17,16,59,26.60
2008,08,17,17,00,26.60
2008,08,17,17,01,26.60
2008,08,17,17,02,26.60
2008,08,17,17,03,26.60
2008,08,17,17,04,26.50
2008,08,17,17,05,26.50
2008,08,17,17,06,26.40
2008,08,17,17,07,26.40
2008,08,17,17,08,26.40
2008,08,17,17,09,26.30
2008,08,17,17,10,26.30
2008,08,17,17,11,26.30
2008,08,17,17,12,26.20
2008,08,17,17,13,26.10
2008,08,17,17,14,26.00
2008,08,17,17,15,26.00
2008,08,17,17,16,25.90
2008,08,17,17,17,25.90
2008,08,17,17,18,25.80
2008,08,17,17,19,25.80